owner,sensor,date,latitude,longitude,vertical_datum,sea_water_practical_salinity,qcFlag 
DISL,ioos:station:DISL:KATA:1,2012-01-01T00:00:00Z,30.2583,-88.2131,1.3,28.3,11111222 
DISL,ioos:station:DISL:KATA:1,2012-01-01T00:30:00Z,30.2583,-88.2131,1.3,28.3,11111222 
DISL,ioos:station:DISL:KATA:1,2012-01-01T01:00:00Z,30.2583,-88.2131,1.3,28.3,11111222 
DISL,ioos:station:DISL:KATA:1,2012-01-01T01:30:00Z,30.2583,-88.2131,1.3,28.2,11111222 
DISL,ioos:station:DISL:KATA:1,2012-01-01T02:00:00Z,30.2583,-88.2131,1.3,28.2,11111222 
DISL,ioos:station:DISL:KATA:1,2012-01-01T02:30:00Z,30.2583,-88.2131,1.3,28.2,11111222 
DISL,ioos:station:DISL:KATA:1,2012-01-01T03:00:00Z,30.2583,-88.2131,1.3,28.2,11111222 
DISL,ioos:station:DISL:KATA:1,2012-01-01T03:30:00Z,30.2583,-88.2131,1.3,28.1,11111222 
DISL,ioos:station:DISL:KATA:1,2012-01-01T04:00:00Z,30.2583,-88.2131,1.3,28.1,11111222 
DISL,ioos:station:DISL:KATA:1,2012-01-01T04:30:00Z,30.2583,-88.2131,1.3,28.1,11111222 
DISL,ioos:station:DISL:KATA:1,2012-01-01T05:00:00Z,30.2583,-88.2131,1.3,28.0,11111222 
DISL,ioos:station:DISL:KATA:1,2012-01-01T05:30:00Z,30.2583,-88.2131,1.3,27.9,11111222 
DISL,ioos:station:DISL:KATA:1,2012-01-01T06:00:00Z,30.2583,-88.2131,1.2,27.8,11111222 
DISL,ioos:station:DISL:KATA:1,2012-01-01T06:30:00Z,30.2583,-88.2131,4.059,27.77,1111122 
DISL,ioos:station:DISL:KATA:1,2012-01-01T07:00:00Z,30.2583,-88.2131,4.048,27.71,1111122 
DISL,ioos:station:DISL:KATA:1,2012-01-01T07:30:00Z,30.2583,-88.2131,4.039,27.68,1111122 
DISL,ioos:station:DISL:KATA:1,2012-01-01T08:00:00Z,30.2583,-88.2131,4.026,27.55,1111122 
DISL,ioos:station:DISL:KATA:1,2012-01-01T08:30:00Z,30.2583,-88.2131,4.019,27.36,1111122 
DISL,ioos:station:DISL:KATA:1,2012-01-01T09:00:00Z,30.2583,-88.2131,4.012,27.63,1111122 
DISL,ioos:station:DISL:KATA:1,2012-01-01T09:30:00Z,30.2583,-88.2131,3.996,27.65,1111122 
DISL,ioos:station:DISL:KATA:1,2012-01-01T10:00:00Z,30.2583,-88.2131,4.001,27.66,1111122 
DISL,ioos:station:DISL:KATA:1,2012-01-01T10:30:00Z,30.2583,-88.2131,3.995,27.7,1111122 
DISL,ioos:station:DISL:KATA:1,2012-01-01T11:00:00Z,30.2583,-88.2131,3.991,27.71,1111122 
DISL,ioos:station:DISL:KATA:1,2012-01-01T11:30:00Z,30.2583,-88.2131,3.988,27.71,1111122 
DISL,ioos:station:DISL:KATA:1,2012-01-01T12:00:00Z,30.2583,-88.2131,3.987,27.74,1111122 
DISL,ioos:station:DISL:KATA:1,2012-01-01T12:30:00Z,30.2583,-88.2131,3.974,27.77,1111122 
DISL,ioos:station:DISL:KATA:1,2012-01-01T13:00:00Z,30.2583,-88.2131,3.977,27.8,1111122 
DISL,ioos:station:DISL:KATA:1,2012-01-01T13:30:00Z,30.2583,-88.2131,3.987,27.79,1111122 
DISL,ioos:station:DISL:KATA:1,2012-01-01T14:00:00Z,30.2583,-88.2131,3.992,27.83,1111122 
DISL,ioos:station:DISL:KATA:1,2012-01-01T14:30:00Z,30.2583,-88.2131,4.0,27.95,1111122 
DISL,ioos:station:DISL:KATA:1,2012-01-01T15:00:00Z,30.2583,-88.2131,4.009,28.0,1111122 
DISL,ioos:station:DISL:KATA:1,2012-01-01T15:30:00Z,30.2583,-88.2131,4.023,28.06,1111122 
DISL,ioos:station:DISL:KATA:1,2012-01-01T16:00:00Z,30.2583,-88.2131,4.027,28.11,1111122 
DISL,ioos:station:DISL:KATA:1,2012-01-01T16:30:00Z,30.2583,-88.2131,4.037,28.2,1111122 
DISL,ioos:station:DISL:KATA:1,2012-01-01T17:00:00Z,30.2583,-88.2131,4.037,28.42,1111122 
DISL,ioos:station:DISL:KATA:1,2012-01-01T17:30:00Z,30.2583,-88.2131,4.053,28.55,1111122 
DISL,ioos:station:DISL:KATA:1,2012-01-01T18:00:00Z,30.2583,-88.2131,4.059,28.67,1111122 
DISL,ioos:station:DISL:KATA:1,2012-01-01T18:30:00Z,30.2583,-88.2131,4.067,28.74,1111122 
DISL,ioos:station:DISL:KATA:1,2012-01-01T19:00:00Z,30.2583,-88.2131,4.083,28.78,1111122 
DISL,ioos:station:DISL:KATA:1,2012-01-01T19:30:00Z,30.2583,-88.2131,4.097,28.74,1111122 
DISL,ioos:station:DISL:KATA:1,2012-01-01T20:00:00Z,30.2583,-88.2131,4.109,28.67,1111122 
DISL,ioos:station:DISL:KATA:1,2012-01-01T20:30:00Z,30.2583,-88.2131,4.126,27.47,1111122 
DISL,ioos:station:DISL:KATA:1,2012-01-01T21:00:00Z,30.2583,-88.2131,4.126,28.61,1111122 
DISL,ioos:station:DISL:KATA:1,2012-01-01T21:30:00Z,30.2583,-88.2131,4.13,28.7,1111122 
DISL,ioos:station:DISL:KATA:1,2012-01-01T22:00:00Z,30.2583,-88.2131,4.131,28.69,1111122 
DISL,ioos:station:DISL:KATA:1,2012-01-01T22:30:00Z,30.2583,-88.2131,4.116,28.69,1111122 
DISL,ioos:station:DISL:KATA:1,2012-01-01T23:00:00Z,30.2583,-88.2131,4.106,28.58,1111122 
DISL,ioos:station:DISL:KATA:1,2012-01-01T23:30:00Z,30.2583,-88.2131,4.114,28.47,1111122 
DISL,ioos:station:DISL:KATA:1,2012-01-02T00:00:00Z,30.2583,-88.2131,4.088,28.05,1111122 
DISL,ioos:station:DISL:KATA:1,2012-01-02T00:30:00Z,30.2583,-88.2131,4.097,27.55,1111122 
DISL,ioos:station:DISL:KATA:1,2012-01-02T01:00:00Z,30.2583,-88.2131,4.072,27.17,1111122 
DISL,ioos:station:DISL:KATA:1,2012-01-02T01:30:00Z,30.2583,-88.2131,4.05,25.79,1111122 
DISL,ioos:station:DISL:KATA:1,2012-01-02T02:00:00Z,30.2583,-88.2131,4.011,26.93,1111122 
DISL,ioos:station:DISL:KATA:1,2012-01-02T02:30:00Z,30.2583,-88.2131,3.992,25.21,1111122 
DISL,ioos:station:DISL:KATA:1,2012-01-02T03:00:00Z,30.2583,-88.2131,3.969,23.23,1111122 
DISL,ioos:station:DISL:KATA:1,2012-01-02T03:30:00Z,30.2583,-88.2131,3.892,23.35,1111122 
DISL,ioos:station:DISL:KATA:1,2012-01-02T04:00:00Z,30.2583,-88.2131,3.849,22.93,1111122 
DISL,ioos:station:DISL:KATA:1,2012-01-02T04:30:00Z,30.2583,-88.2131,3.842,22.49,1111122 
DISL,ioos:station:DISL:KATA:1,2012-01-02T05:00:00Z,30.2583,-88.2131,3.766,22.38,1111122 
DISL,ioos:station:DISL:KATA:1,2012-01-02T05:30:00Z,30.2583,-88.2131,3.712,22.21,1111122 
DISL,ioos:station:DISL:KATA:1,2012-01-02T06:00:00Z,30.2583,-88.2131,3.686,22.09,1111122 
DISL,ioos:station:DISL:KATA:1,2012-01-02T06:30:00Z,30.2583,-88.2131,3.657,21.85,1111122 
DISL,ioos:station:DISL:KATA:1,2012-01-02T07:00:00Z,30.2583,-88.2131,3.642,21.73,1111122 
DISL,ioos:station:DISL:KATA:1,2012-01-02T07:30:00Z,30.2583,-88.2131,3.656,21.5,1111122 
DISL,ioos:station:DISL:KATA:1,2012-01-02T08:00:00Z,30.2583,-88.2131,3.649,21.38,1111122 
DISL,ioos:station:DISL:KATA:1,2012-01-02T08:30:00Z,30.2583,-88.2131,3.674,21.28,1111122 
DISL,ioos:station:DISL:KATA:1,2012-01-02T09:00:00Z,30.2583,-88.2131,3.694,21.26,1111122 
DISL,ioos:station:DISL:KATA:1,2012-01-02T09:30:00Z,30.2583,-88.2131,3.708,20.95,1111122 
DISL,ioos:station:DISL:KATA:1,2012-01-02T10:00:00Z,30.2583,-88.2131,3.727,21.03,1111122 
DISL,ioos:station:DISL:KATA:1,2012-01-02T10:30:00Z,30.2583,-88.2131,3.74,21.01,1111122 
DISL,ioos:station:DISL:KATA:1,2012-01-02T11:00:00Z,30.2583,-88.2131,3.719,21.9,1111122 
DISL,ioos:station:DISL:KATA:1,2012-01-02T11:30:00Z,30.2583,-88.2131,3.71,22.42,1111122 
DISL,ioos:station:DISL:KATA:1,2012-01-02T12:00:00Z,30.2583,-88.2131,3.688,22.51,1111122 
DISL,ioos:station:DISL:KATA:1,2012-01-02T12:30:00Z,30.2583,-88.2131,3.701,22.8,1111122 
DISL,ioos:station:DISL:KATA:1,2012-01-02T13:00:00Z,30.2583,-88.2131,3.731,22.64,1111122 
DISL,ioos:station:DISL:KATA:1,2012-01-02T13:30:00Z,30.2583,-88.2131,3.755,22.43,1111122 
DISL,ioos:station:DISL:KATA:1,2012-01-02T14:00:00Z,30.2583,-88.2131,3.776,22.3,1111122 
DISL,ioos:station:DISL:KATA:1,2012-01-02T14:30:00Z,30.2583,-88.2131,3.796,22.18,1111122 
DISL,ioos:station:DISL:KATA:1,2012-01-02T15:00:00Z,30.2583,-88.2131,3.808,22.24,1111122 
DISL,ioos:station:DISL:KATA:1,2012-01-02T15:30:00Z,30.2583,-88.2131,3.836,21.34,1111122 
DISL,ioos:station:DISL:KATA:1,2012-01-02T16:00:00Z,30.2583,-88.2131,3.852,21.63,1111122 
DISL,ioos:station:DISL:KATA:1,2012-01-02T16:30:00Z,30.2583,-88.2131,3.885,21.53,1111122 
DISL,ioos:station:DISL:KATA:1,2012-01-02T17:00:00Z,30.2583,-88.2131,3.916,21.32,1111122 
DISL,ioos:station:DISL:KATA:1,2012-01-02T17:30:00Z,30.2583,-88.2131,3.953,21.17,1111122 
DISL,ioos:station:DISL:KATA:1,2012-01-02T18:00:00Z,30.2583,-88.2131,3.958,20.99,1111122 
DISL,ioos:station:DISL:KATA:1,2012-01-02T18:30:00Z,30.2583,-88.2131,3.974,20.96,1111122 
DISL,ioos:station:DISL:KATA:1,2012-01-02T19:00:00Z,30.2583,-88.2131,3.98,21.04,1111122 
DISL,ioos:station:DISL:KATA:1,2012-01-02T19:30:00Z,30.2583,-88.2131,4.008,21.23,1111122 
DISL,ioos:station:DISL:KATA:1,2012-01-02T20:00:00Z,30.2583,-88.2131,4.04,21.27,1111122 
DISL,ioos:station:DISL:KATA:1,2012-01-02T20:30:00Z,30.2583,-88.2131,4.048,21.34,1111122 
DISL,ioos:station:DISL:KATA:1,2012-01-02T21:00:00Z,30.2583,-88.2131,4.07,21.53,1111122 
DISL,ioos:station:DISL:KATA:1,2012-01-02T21:30:00Z,30.2583,-88.2131,4.09,21.65,1111122 
DISL,ioos:station:DISL:KATA:1,2012-01-02T22:00:00Z,30.2583,-88.2131,4.099,21.7,1111122 
DISL,ioos:station:DISL:KATA:1,2012-01-02T22:30:00Z,30.2583,-88.2131,4.112,21.96,1111122 
DISL,ioos:station:DISL:KATA:1,2012-01-02T23:00:00Z,30.2583,-88.2131,4.108,22.03,1111122 
DISL,ioos:station:DISL:KATA:1,2012-01-02T23:30:00Z,30.2583,-88.2131,4.104,22.13,1111122 
DISL,ioos:station:DISL:KATA:1,2012-01-03T00:00:00Z,30.2583,-88.2131,4.059,22.2,1111122 
DISL,ioos:station:DISL:KATA:1,2012-01-03T00:30:00Z,30.2583,-88.2131,4.083,22.22,1111122 
DISL,ioos:station:DISL:KATA:1,2012-01-03T01:00:00Z,30.2583,-88.2131,4.081,22.24,1111122 
DISL,ioos:station:DISL:KATA:1,2012-01-03T01:30:00Z,30.2583,-88.2131,4.083,22.3,1111122 
DISL,ioos:station:DISL:KATA:1,2012-01-03T02:00:00Z,30.2583,-88.2131,4.061,22.32,1111122 
DISL,ioos:station:DISL:KATA:1,2012-01-03T02:30:00Z,30.2583,-88.2131,4.037,22.3,1111122 
DISL,ioos:station:DISL:KATA:1,2012-01-03T03:00:00Z,30.2583,-88.2131,3.947,22.3,1111122 
DISL,ioos:station:DISL:KATA:1,2012-01-03T03:30:00Z,30.2583,-88.2131,3.922,22.24,1111122 
DISL,ioos:station:DISL:KATA:1,2012-01-03T04:00:00Z,30.2583,-88.2131,3.858,22.23,1111122 
DISL,ioos:station:DISL:KATA:1,2012-01-03T04:30:00Z,30.2583,-88.2131,3.785,22.15,1111122 
DISL,ioos:station:DISL:KATA:1,2012-01-03T05:00:00Z,30.2583,-88.2131,3.73,21.99,1111122 
DISL,ioos:station:DISL:KATA:1,2012-01-03T05:30:00Z,30.2583,-88.2131,3.677,21.74,1111122 
DISL,ioos:station:DISL:KATA:1,2012-01-03T06:00:00Z,30.2583,-88.2131,3.626,21.71,1111122 
DISL,ioos:station:DISL:KATA:1,2012-01-03T06:30:00Z,30.2583,-88.2131,3.596,21.53,1111122 
DISL,ioos:station:DISL:KATA:1,2012-01-03T07:00:00Z,30.2583,-88.2131,3.529,21.26,1111122 
DISL,ioos:station:DISL:KATA:1,2012-01-03T07:30:00Z,30.2583,-88.2131,3.513,21.17,1111122 
DISL,ioos:station:DISL:KATA:1,2012-01-03T08:00:00Z,30.2583,-88.2131,3.498,21.08,1111122 
DISL,ioos:station:DISL:KATA:1,2012-01-03T08:30:00Z,30.2583,-88.2131,3.505,21.13,1111122 
DISL,ioos:station:DISL:KATA:1,2012-01-03T09:00:00Z,30.2583,-88.2131,3.517,21.3,1111122 
DISL,ioos:station:DISL:KATA:1,2012-01-03T09:30:00Z,30.2583,-88.2131,3.534,21.16,1111122 
DISL,ioos:station:DISL:KATA:1,2012-01-03T10:00:00Z,30.2583,-88.2131,3.501,21.04,1111122 
DISL,ioos:station:DISL:KATA:1,2012-01-03T10:30:00Z,30.2583,-88.2131,3.525,21.04,1111122 
DISL,ioos:station:DISL:KATA:1,2012-01-03T11:00:00Z,30.2583,-88.2131,3.508,20.83,1111122 
DISL,ioos:station:DISL:KATA:1,2012-01-03T11:30:00Z,30.2583,-88.2131,3.475,20.75,1111122 
DISL,ioos:station:DISL:KATA:1,2012-01-03T12:00:00Z,30.2583,-88.2131,3.458,20.75,1111122 
DISL,ioos:station:DISL:KATA:1,2012-01-03T12:30:00Z,30.2583,-88.2131,3.459,20.6,1111122 
DISL,ioos:station:DISL:KATA:1,2012-01-03T13:00:00Z,30.2583,-88.2131,3.474,20.55,1111122 
DISL,ioos:station:DISL:KATA:1,2012-01-03T13:30:00Z,30.2583,-88.2131,3.49,20.59,1111122 
DISL,ioos:station:DISL:KATA:1,2012-01-03T14:00:00Z,30.2583,-88.2131,3.518,20.65,1111122 
DISL,ioos:station:DISL:KATA:1,2012-01-03T14:30:00Z,30.2583,-88.2131,3.55,20.61,1111122 
DISL,ioos:station:DISL:KATA:1,2012-01-03T15:00:00Z,30.2583,-88.2131,3.595,20.59,1111122 
DISL,ioos:station:DISL:KATA:1,2012-01-03T15:30:00Z,30.2583,-88.2131,3.636,20.55,1111122 
DISL,ioos:station:DISL:KATA:1,2012-01-03T16:00:00Z,30.2583,-88.2131,3.659,21.55,1111122 
DISL,ioos:station:DISL:KATA:1,2012-01-03T16:30:00Z,30.2583,-88.2131,3.679,22.03,1111122 
DISL,ioos:station:DISL:KATA:1,2012-01-03T17:00:00Z,30.2583,-88.2131,3.692,22.07,1111122 
DISL,ioos:station:DISL:KATA:1,2012-01-03T17:30:00Z,30.2583,-88.2131,3.704,22.08,1111122 
DISL,ioos:station:DISL:KATA:1,2012-01-03T18:00:00Z,30.2583,-88.2131,3.741,22.28,1111122 
DISL,ioos:station:DISL:KATA:1,2012-01-03T18:30:00Z,30.2583,-88.2131,3.781,21.42,1111122 
DISL,ioos:station:DISL:KATA:1,2012-01-03T19:00:00Z,30.2583,-88.2131,3.818,21.72,1111122 
DISL,ioos:station:DISL:KATA:1,2012-01-03T19:30:00Z,30.2583,-88.2131,3.854,21.88,1111122 
DISL,ioos:station:DISL:KATA:1,2012-01-03T20:00:00Z,30.2583,-88.2131,3.892,21.91,1111122 
DISL,ioos:station:DISL:KATA:1,2012-01-03T20:30:00Z,30.2583,-88.2131,3.928,21.87,1111122 
DISL,ioos:station:DISL:KATA:1,2012-01-03T21:00:00Z,30.2583,-88.2131,3.962,21.69,1111122 
DISL,ioos:station:DISL:KATA:1,2012-01-03T21:30:00Z,30.2583,-88.2131,3.979,22.03,1111122 
DISL,ioos:station:DISL:KATA:1,2012-01-03T22:00:00Z,30.2583,-88.2131,3.987,21.97,1111122 
DISL,ioos:station:DISL:KATA:1,2012-01-03T22:30:00Z,30.2583,-88.2131,3.99,22.07,1111122 
DISL,ioos:station:DISL:KATA:1,2012-01-03T23:00:00Z,30.2583,-88.2131,3.979,22.14,1111122 
DISL,ioos:station:DISL:KATA:1,2012-01-03T23:30:00Z,30.2583,-88.2131,3.961,22.32,1111122 
DISL,ioos:station:DISL:KATA:1,2012-01-04T00:00:00Z,30.2583,-88.2131,3.937,22.47,1111122 
DISL,ioos:station:DISL:KATA:1,2012-01-04T00:30:00Z,30.2583,-88.2131,3.929,22.92,1111122 
DISL,ioos:station:DISL:KATA:1,2012-01-04T01:00:00Z,30.2583,-88.2131,3.915,22.99,1111122 
DISL,ioos:station:DISL:KATA:1,2012-01-04T01:30:00Z,30.2583,-88.2131,3.919,23.22,1111122 
DISL,ioos:station:DISL:KATA:1,2012-01-04T02:00:00Z,30.2583,-88.2131,3.917,23.39,1111122 
DISL,ioos:station:DISL:KATA:1,2012-01-04T02:30:00Z,30.2583,-88.2131,3.916,23.53,1111122 
DISL,ioos:station:DISL:KATA:1,2012-01-04T03:00:00Z,30.2583,-88.2131,3.914,23.61,1111122 
DISL,ioos:station:DISL:KATA:1,2012-01-04T03:30:00Z,30.2583,-88.2131,3.891,23.64,1111122 
DISL,ioos:station:DISL:KATA:1,2012-01-04T04:00:00Z,30.2583,-88.2131,3.863,23.65,1111122 
DISL,ioos:station:DISL:KATA:1,2012-01-04T04:30:00Z,30.2583,-88.2131,3.823,23.7,1111122 
DISL,ioos:station:DISL:KATA:1,2012-01-04T05:00:00Z,30.2583,-88.2131,3.779,23.73,1111122 
DISL,ioos:station:DISL:KATA:1,2012-01-04T05:30:00Z,30.2583,-88.2131,3.736,23.67,1111122 
DISL,ioos:station:DISL:KATA:1,2012-01-04T06:00:00Z,30.2583,-88.2131,3.687,23.57,1111122 
DISL,ioos:station:DISL:KATA:1,2012-01-04T06:30:00Z,30.2583,-88.2131,3.652,23.39,1111122 
DISL,ioos:station:DISL:KATA:1,2012-01-04T07:00:00Z,30.2583,-88.2131,3.621,23.24,1111122 
DISL,ioos:station:DISL:KATA:1,2012-01-04T07:30:00Z,30.2583,-88.2131,3.596,23.01,1111122 
DISL,ioos:station:DISL:KATA:1,2012-01-04T08:00:00Z,30.2583,-88.2131,3.571,22.84,1111122 
DISL,ioos:station:DISL:KATA:1,2012-01-04T08:30:00Z,30.2583,-88.2131,3.562,22.69,1111122 
DISL,ioos:station:DISL:KATA:1,2012-01-04T09:00:00Z,30.2583,-88.2131,3.558,23.33,1111122 
DISL,ioos:station:DISL:KATA:1,2012-01-04T09:30:00Z,30.2583,-88.2131,3.56,23.52,1111122 
DISL,ioos:station:DISL:KATA:1,2012-01-04T10:00:00Z,30.2583,-88.2131,3.562,23.59,1111122 
DISL,ioos:station:DISL:KATA:1,2012-01-04T10:30:00Z,30.2583,-88.2131,3.567,23.56,1111122 
DISL,ioos:station:DISL:KATA:1,2012-01-04T11:00:00Z,30.2583,-88.2131,3.563,23.55,1111122 
DISL,ioos:station:DISL:KATA:1,2012-01-04T11:30:00Z,30.2583,-88.2131,3.555,23.48,1111122 
DISL,ioos:station:DISL:KATA:1,2012-01-04T12:00:00Z,30.2583,-88.2131,3.557,23.47,1111122 
DISL,ioos:station:DISL:KATA:1,2012-01-04T12:30:00Z,30.2583,-88.2131,3.569,23.57,1111122 
DISL,ioos:station:DISL:KATA:1,2012-01-04T13:00:00Z,30.2583,-88.2131,3.591,23.59,1111122 
DISL,ioos:station:DISL:KATA:1,2012-01-04T13:30:00Z,30.2583,-88.2131,3.615,23.66,1111122 
DISL,ioos:station:DISL:KATA:1,2012-01-04T14:00:00Z,30.2583,-88.2131,3.652,23.65,1111122 
DISL,ioos:station:DISL:KATA:1,2012-01-04T14:30:00Z,30.2583,-88.2131,3.69,23.76,1111122 
DISL,ioos:station:DISL:KATA:1,2012-01-04T15:00:00Z,30.2583,-88.2131,3.727,23.87,1111122 
DISL,ioos:station:DISL:KATA:1,2012-01-04T15:30:00Z,30.2583,-88.2131,3.763,23.93,1111122 
DISL,ioos:station:DISL:KATA:1,2012-01-04T16:00:00Z,30.2583,-88.2131,3.796,23.97,1111122 
DISL,ioos:station:DISL:KATA:1,2012-01-04T16:30:00Z,30.2583,-88.2131,3.827,24.02,1111122 
DISL,ioos:station:DISL:KATA:1,2012-01-04T17:00:00Z,30.2583,-88.2131,3.845,24.08,1111122 
DISL,ioos:station:DISL:KATA:1,2012-01-04T17:30:00Z,30.2583,-88.2131,3.862,24.1,1111122 
DISL,ioos:station:DISL:KATA:1,2012-01-04T18:00:00Z,30.2583,-88.2131,3.887,24.13,1111122 
DISL,ioos:station:DISL:KATA:1,2012-01-04T18:30:00Z,30.2583,-88.2131,3.909,24.18,1111122 
DISL,ioos:station:DISL:KATA:1,2012-01-04T19:00:00Z,30.2583,-88.2131,3.924,24.29,1111122 
DISL,ioos:station:DISL:KATA:1,2012-01-04T19:30:00Z,30.2583,-88.2131,3.955,24.36,1111122 
DISL,ioos:station:DISL:KATA:1,2012-01-04T20:00:00Z,30.2583,-88.2131,3.988,24.43,1111122 
DISL,ioos:station:DISL:KATA:1,2012-01-04T20:30:00Z,30.2583,-88.2131,4.023,24.71,1111122 
DISL,ioos:station:DISL:KATA:1,2012-01-04T21:00:00Z,30.2583,-88.2131,4.067,25.04,1111122 
DISL,ioos:station:DISL:KATA:1,2012-01-04T21:30:00Z,30.2583,-88.2131,4.113,25.16,1111122 
DISL,ioos:station:DISL:KATA:1,2012-01-04T22:00:00Z,30.2583,-88.2131,4.143,26.23,1111122 
DISL,ioos:station:DISL:KATA:1,2012-01-04T22:30:00Z,30.2583,-88.2131,4.17,27.16,1111122 
DISL,ioos:station:DISL:KATA:1,2012-01-04T23:00:00Z,30.2583,-88.2131,4.189,28.12,1111122 
DISL,ioos:station:DISL:KATA:1,2012-01-04T23:30:00Z,30.2583,-88.2131,4.196,28.73,1111122 
DISL,ioos:station:DISL:KATA:1,2012-01-05T00:00:00Z,30.2583,-88.2131,4.191,29.14,1111122 
DISL,ioos:station:DISL:KATA:1,2012-01-05T00:30:00Z,30.2583,-88.2131,4.182,29.42,1111122 
DISL,ioos:station:DISL:KATA:1,2012-01-05T01:00:00Z,30.2583,-88.2131,4.172,29.54,1111122 
DISL,ioos:station:DISL:KATA:1,2012-01-05T01:30:00Z,30.2583,-88.2131,4.157,29.64,1111122 
DISL,ioos:station:DISL:KATA:1,2012-01-05T02:00:00Z,30.2583,-88.2131,4.156,29.77,1111122 
DISL,ioos:station:DISL:KATA:1,2012-01-05T02:30:00Z,30.2583,-88.2131,4.142,29.87,1111122 
DISL,ioos:station:DISL:KATA:1,2012-01-05T03:00:00Z,30.2583,-88.2131,4.132,29.91,1111122 
DISL,ioos:station:DISL:KATA:1,2012-01-05T03:30:00Z,30.2583,-88.2131,4.102,29.93,1111122 
DISL,ioos:station:DISL:KATA:1,2012-01-05T04:00:00Z,30.2583,-88.2131,4.066,29.83,1111122 
DISL,ioos:station:DISL:KATA:1,2012-01-05T04:30:00Z,30.2583,-88.2131,4.033,29.61,1111122 
DISL,ioos:station:DISL:KATA:1,2012-01-05T05:00:00Z,30.2583,-88.2131,4.001,29.3,1111122 
DISL,ioos:station:DISL:KATA:1,2012-01-05T05:30:00Z,30.2583,-88.2131,3.943,29.03,1111122 
DISL,ioos:station:DISL:KATA:1,2012-01-05T06:00:00Z,30.2583,-88.2131,3.888,28.29,1111122 
DISL,ioos:station:DISL:KATA:1,2012-01-05T06:30:00Z,30.2583,-88.2131,3.833,28.13,1111122 
DISL,ioos:station:DISL:KATA:1,2012-01-05T07:00:00Z,30.2583,-88.2131,3.781,27.29,1111122 
DISL,ioos:station:DISL:KATA:1,2012-01-05T07:30:00Z,30.2583,-88.2131,3.73,27.02,1111122 
DISL,ioos:station:DISL:KATA:1,2012-01-05T08:00:00Z,30.2583,-88.2131,3.68,26.55,1111122 
DISL,ioos:station:DISL:KATA:1,2012-01-05T08:30:00Z,30.2583,-88.2131,3.642,25.36,1111122 
DISL,ioos:station:DISL:KATA:1,2012-01-05T09:00:00Z,30.2583,-88.2131,3.609,24.88,1111122 
DISL,ioos:station:DISL:KATA:1,2012-01-05T09:30:00Z,30.2583,-88.2131,3.579,26.46,1111122 
DISL,ioos:station:DISL:KATA:1,2012-01-05T10:00:00Z,30.2583,-88.2131,3.559,27.12,1111122 
DISL,ioos:station:DISL:KATA:1,2012-01-05T10:30:00Z,30.2583,-88.2131,3.547,26.64,1111122 
DISL,ioos:station:DISL:KATA:1,2012-01-05T11:00:00Z,30.2583,-88.2131,3.543,26.36,1111122 
DISL,ioos:station:DISL:KATA:1,2012-01-05T11:30:00Z,30.2583,-88.2131,3.538,26.6,1111122 
DISL,ioos:station:DISL:KATA:1,2012-01-05T12:00:00Z,30.2583,-88.2131,3.547,27.08,1111122 
DISL,ioos:station:DISL:KATA:1,2012-01-05T12:30:00Z,30.2583,-88.2131,3.561,27.39,1111122 
DISL,ioos:station:DISL:KATA:1,2012-01-05T13:00:00Z,30.2583,-88.2131,3.577,28.14,1111122 
DISL,ioos:station:DISL:KATA:1,2012-01-05T13:30:00Z,30.2583,-88.2131,3.603,28.88,1111122 
DISL,ioos:station:DISL:KATA:1,2012-01-05T14:00:00Z,30.2583,-88.2131,3.63,29.0,1111122 
DISL,ioos:station:DISL:KATA:1,2012-01-05T14:30:00Z,30.2583,-88.2131,3.663,29.08,1111122 
DISL,ioos:station:DISL:KATA:1,2012-01-05T15:00:00Z,30.2583,-88.2131,3.701,29.0,1111122 
DISL,ioos:station:DISL:KATA:1,2012-01-05T15:30:00Z,30.2583,-88.2131,3.725,29.1,1111122 
DISL,ioos:station:DISL:KATA:1,2012-01-05T16:00:00Z,30.2583,-88.2131,3.751,29.21,1111122 
DISL,ioos:station:DISL:KATA:1,2012-01-05T16:30:00Z,30.2583,-88.2131,3.776,29.29,1111122 
DISL,ioos:station:DISL:KATA:1,2012-01-05T17:00:00Z,30.2583,-88.2131,3.798,29.39,1111122 
DISL,ioos:station:DISL:KATA:1,2012-01-05T17:30:00Z,30.2583,-88.2131,3.82,29.35,1111122 
DISL,ioos:station:DISL:KATA:1,2012-01-05T18:00:00Z,30.2583,-88.2131,3.843,29.29,1111122 
DISL,ioos:station:DISL:KATA:1,2012-01-05T18:30:00Z,30.2583,-88.2131,3.873,29.23,1111122 
DISL,ioos:station:DISL:KATA:1,2012-01-05T19:00:00Z,30.2583,-88.2131,3.903,29.2,1111122 
DISL,ioos:station:DISL:KATA:1,2012-01-05T19:30:00Z,30.2583,-88.2131,3.939,29.24,1111122 
DISL,ioos:station:DISL:KATA:1,2012-01-05T20:00:00Z,30.2583,-88.2131,3.978,29.35,1111122 
DISL,ioos:station:DISL:KATA:1,2012-01-05T20:30:00Z,30.2583,-88.2131,4.017,29.43,1111122 
DISL,ioos:station:DISL:KATA:1,2012-01-05T21:00:00Z,30.2583,-88.2131,4.066,29.29,1111122 
DISL,ioos:station:DISL:KATA:1,2012-01-05T21:30:00Z,30.2583,-88.2131,4.111,29.14,1111122 
DISL,ioos:station:DISL:KATA:1,2012-01-05T22:00:00Z,30.2583,-88.2131,4.155,29.04,1111122 
DISL,ioos:station:DISL:KATA:1,2012-01-05T22:30:00Z,30.2583,-88.2131,4.185,29.05,1111122 
DISL,ioos:station:DISL:KATA:1,2012-01-05T23:00:00Z,30.2583,-88.2131,4.207,29.06,1111122 
DISL,ioos:station:DISL:KATA:1,2012-01-05T23:30:00Z,30.2583,-88.2131,4.216,29.14,1111122 
DISL,ioos:station:DISL:KATA:1,2012-01-06T00:00:00Z,30.2583,-88.2131,4.216,28.88,1111122 
DISL,ioos:station:DISL:KATA:1,2012-01-06T00:30:00Z,30.2583,-88.2131,4.208,28.81,1111122 
DISL,ioos:station:DISL:KATA:1,2012-01-06T01:00:00Z,30.2583,-88.2131,4.203,29.12,1111122 
DISL,ioos:station:DISL:KATA:1,2012-01-06T01:30:00Z,30.2583,-88.2131,4.209,28.83,1111122 
DISL,ioos:station:DISL:KATA:1,2012-01-06T02:00:00Z,30.2583,-88.2131,4.208,29.15,1111122 
DISL,ioos:station:DISL:KATA:1,2012-01-06T02:30:00Z,30.2583,-88.2131,4.203,29.05,1111122 
DISL,ioos:station:DISL:KATA:1,2012-01-06T03:00:00Z,30.2583,-88.2131,4.189,29.06,1111122 
DISL,ioos:station:DISL:KATA:1,2012-01-06T03:30:00Z,30.2583,-88.2131,4.17,28.95,1111122 
DISL,ioos:station:DISL:KATA:1,2012-01-06T04:00:00Z,30.2583,-88.2131,4.144,28.92,1111122 
DISL,ioos:station:DISL:KATA:1,2012-01-06T04:30:00Z,30.2583,-88.2131,4.11,28.76,1111122 
DISL,ioos:station:DISL:KATA:1,2012-01-06T05:00:00Z,30.2583,-88.2131,4.068,28.51,1111122 
DISL,ioos:station:DISL:KATA:1,2012-01-06T05:30:00Z,30.2583,-88.2131,4.022,28.27,1111122 
DISL,ioos:station:DISL:KATA:1,2012-01-06T06:00:00Z,30.2583,-88.2131,3.968,27.97,1111122 
DISL,ioos:station:DISL:KATA:1,2012-01-06T06:30:00Z,30.2583,-88.2131,3.912,27.7,1111122 
DISL,ioos:station:DISL:KATA:1,2012-01-06T07:00:00Z,30.2583,-88.2131,3.863,27.44,1111122 
DISL,ioos:station:DISL:KATA:1,2012-01-06T07:30:00Z,30.2583,-88.2131,3.819,27.23,1111122 
DISL,ioos:station:DISL:KATA:1,2012-01-06T08:00:00Z,30.2583,-88.2131,3.773,27.06,1111122 
DISL,ioos:station:DISL:KATA:1,2012-01-06T08:30:00Z,30.2583,-88.2131,3.734,26.93,1111122 
DISL,ioos:station:DISL:KATA:1,2012-01-06T09:00:00Z,30.2583,-88.2131,3.695,26.8,1111122 
DISL,ioos:station:DISL:KATA:1,2012-01-06T09:30:00Z,30.2583,-88.2131,3.666,26.75,1111122 
DISL,ioos:station:DISL:KATA:1,2012-01-06T10:00:00Z,30.2583,-88.2131,3.644,26.77,1111122 
DISL,ioos:station:DISL:KATA:1,2012-01-06T10:30:00Z,30.2583,-88.2131,3.623,26.78,1111122 
DISL,ioos:station:DISL:KATA:1,2012-01-06T11:00:00Z,30.2583,-88.2131,3.609,26.63,1111122 
DISL,ioos:station:DISL:KATA:1,2012-01-06T11:30:00Z,30.2583,-88.2131,3.603,26.69,1111122 
DISL,ioos:station:DISL:KATA:1,2012-01-06T12:00:00Z,30.2583,-88.2131,3.607,26.63,1111122 
DISL,ioos:station:DISL:KATA:1,2012-01-06T12:30:00Z,30.2583,-88.2131,3.619,26.55,1111122 
DISL,ioos:station:DISL:KATA:1,2012-01-06T13:00:00Z,30.2583,-88.2131,3.64,26.72,1111122 
DISL,ioos:station:DISL:KATA:1,2012-01-06T13:30:00Z,30.2583,-88.2131,3.664,27.02,1111122 
DISL,ioos:station:DISL:KATA:1,2012-01-06T14:00:00Z,30.2583,-88.2131,3.695,27.3,1111122 